Date String (YYYY-MM-DD hh:mm:ss) UTC,Instrument flags,absolute air pressure of the measurement (hPa),sample flow rate (lpm),inlet stack bypass flow (lpm),air temperature of the measurement (°C),ambient temperature measured by the external sensor (°C),aerosol sample conditioner tube jacket temperature (°C),OPC LED temperature (°C),internal box temperature (°C),relative humidity of the measurement (%),span deviation,mass concentration of particles derived from Lorenz-Mie calculation of OPC scattering (μg/m³),mass concentration of particles derived from Lorenz-Mie calculation of OPC scattering (μg/m³),mass concentration of particles derived from Lorenz-Mie calculation of OPC scattering (μg/m³)
DateTimeUTC,F1_M11,P_M11,Q1_M11,Q2_M11,T1_M11,T2_M11,T3_M11,T4_M11,T5_M11,U1_M11,ZSPAN_M11,X0_M11,X2_M11,X1_M11
2024-01-05 21:00:00,SystemResetWarning,0821.3,5.00,000.00,021.7,021.1,000.0,029.9,023.0,12.8,0000.0,0008.19,0004.10,0003.72
2024-01-05 21:01:00,SystemResetWarning,0821.3,5.00,000.00,021.7,021.1,000.0,029.9,023.1,12.8,0000.0,0008.27,0004.11,0003.73
2024-01-05 21:02:00,SystemResetWarning,0821.3,5.00,000.00,021.7,021.2,000.0,029.9,023.1,12.8,0000.0,0007.70,0004.11,0003.72
2024-01-05 21:03:00,SystemResetWarning,0821.3,5.00,000.00,021.7,021.2,000.0,029.9,023.1,12.8,0000.0,0007.91,0004.15,0003.73
2024-01-05 21:04:00,SystemResetWarning,0821.3,5.01,000.00,021.8,021.2,000.0,029.9,023.1,12.7,0000.0,0008.17,0004.12,0003.73
2024-01-05 21:05:00,SystemResetWarning,0821.3,5.00,000.00,021.8,021.2,000.0,029.9,023.1,12.6,0000.0,0008.09,0004.10,0003.72
2024-01-05 21:06:00,SystemResetWarning,0821.3,4.99,000.00,021.8,021.2,000.0,030.0,023.1,12.6,0000.0,0008.02,0004.08,0003.72
2024-01-05 21:07:00,SystemResetWarning,0821.2,4.99,000.00,021.8,021.2,000.0,030.0,023.1,12.6,0000.0,0007.98,0004.07,0003.72
2024-01-05 21:08:00,SystemResetWarning,0821.2,4.99,000.00,021.8,021.2,000.0,030.0,023.1,12.5,0000.0,0007.99,0004.07,0003.73
2024-01-05 21:09:00,SystemResetWarning,0821.3,4.99,000.00,021.8,021.2,000.0,030.0,023.1,12.5,0000.0,0007.92,0004.05,0003.72
2024-01-05 21:10:00,SystemResetWarning,0821.3,5.00,000.00,021.8,021.2,000.0,030.0,023.1,12.5,0000.0,0007.75,0004.07,0003.73
2024-01-05 21:11:00,SystemResetWarning,0821.2,5.01,000.00,021.8,021.2,000.0,030.0,023.0,12.4,0000.0,0007.60,0004.07,0003.73
2024-01-05 21:12:00,SystemResetWarning,0821.3,5.01,000.00,021.8,021.1,000.0,030.0,023.0,12.4,0000.0,0007.64,0004.05,0003.73
2024-01-05 21:13:00,SystemResetWarning,0821.3,5.00,000.00,021.8,021.1,000.0,030.0,023.0,12.4,0000.0,0007.67,0004.07,0003.73
2024-01-05 21:14:00,SystemResetWarning,0821.3,5.01,000.00,021.8,021.0,000.0,030.0,022.9,12.3,0000.0,0007.53,0004.06,0003.74
2024-01-05 21:15:00,SystemResetWarning,0821.3,5.00,000.00,021.8,021.0,000.0,030.0,022.9,12.2,0000.0,0007.35,0004.11,0003.76
2024-01-05 21:16:00,SystemResetWarning,0821.3,4.99,000.00,021.8,020.9,000.0,030.0,022.9,12.2,0000.0,0007.43,0004.15,0003.77
2024-01-05 21:17:00,SystemResetWarning,0821.3,5.00,000.00,021.7,020.9,000.0,030.0,022.9,12.2,0000.0,0007.41,0004.15,0003.78
2024-01-05 21:18:00,SystemResetWarning,0821.3,5.00,000.00,021.7,020.9,000.0,030.0,022.9,12.2,0000.0,0007.46,0004.18,0003.80
2024-01-05 21:19:00,SystemResetWarning,0821.3,5.01,000.00,021.7,020.9,000.0,030.0,022.9,12.2,0000.0,0007.42,0004.18,0003.80
2024-01-05 21:20:00,SystemResetWarning,0821.3,5.00,000.00,021.7,020.9,000.0,030.0,022.9,12.2,0000.0,0007.49,0004.23,0003.83
2024-01-05 21:21:00,SystemResetWarning,0821.3,5.00,000.00,021.7,020.9,000.0,030.0,022.8,12.2,0000.0,0007.65,0004.27,0003.85
2024-01-05 21:22:00,SystemResetWarning,0821.3,5.00,000.00,021.7,020.9,000.0,030.0,022.8,12.1,0000.0,0007.72,0004.31,0003.89
2024-01-05 21:23:00,SystemResetWarning,0821.3,4.99,000.00,021.7,020.8,000.0,030.0,022.7,12.1,0000.0,0008.16,0004.35,0003.92
2024-01-05 21:24:00,SystemResetWarning,0821.4,4.99,000.00,021.7,020.8,000.0,030.0,022.7,12.1,0000.0,0008.10,0004.36,0003.94
2024-01-05 21:25:00,SystemResetWarning,0821.3,5.00,000.00,021.6,020.7,000.0,030.0,022.7,12.1,0000.0,0008.25,0004.38,0003.96
2024-01-05 21:26:00,SystemResetWarning,0821.3,5.00,000.00,021.6,020.7,000.0,030.0,022.7,12.1,0000.0,0007.97,0004.36,0003.97
2024-01-05 21:27:00,SystemResetWarning,0821.3,5.00,000.00,021.6,020.7,000.0,030.0,022.7,12.0,0000.0,0008.05,0004.39,0004.00
2024-01-05 21:28:00,SystemResetWarning,0821.3,5.00,000.00,021.6,020.7,000.0,030.0,022.7,12.0,0000.0,0008.16,0004.40,0004.00
2024-01-05 21:29:00,SystemResetWarning,0821.3,5.00,000.00,021.6,020.8,000.0,030.0,022.7,12.0,0000.0,0008.27,0004.40,0004.00
2024-01-05 21:30:00,SystemResetWarning,0821.3,5.01,000.00,021.6,020.8,000.0,029.9,022.7,12.1,0000.0,0008.23,0004.39,0004.01
2024-01-05 21:31:00,SystemResetWarning,0821.3,5.00,000.00,021.6,020.8,000.0,029.9,022.7,12.1,0000.0,0008.15,0004.37,0004.01
2024-01-05 21:32:00,SystemResetWarning,0821.3,4.99,000.00,021.6,020.8,000.0,029.9,022.7,12.1,0000.0,0007.96,0004.31,0004.00
2024-01-05 21:33:00,SystemResetWarning,0821.3,5.00,000.00,021.6,020.8,000.0,029.9,022.8,12.1,0000.0,0008.11,0004.30,0004.00
2024-01-05 21:34:00,SystemResetWarning,0821.3,5.00,000.00,021.6,020.8,000.0,029.9,022.8,12.1,0000.0,0008.05,0004.31,0003.99
2024-01-05 21:35:00,SystemResetWarning,0821.3,4.99,000.00,021.6,020.8,000.0,029.9,022.7,12.1,0000.0,0008.14,0004.34,0003.99
2024-01-05 21:36:00,SystemResetWarning,0821.4,5.01,000.00,021.6,020.8,000.0,029.9,022.7,12.2,0000.0,0008.15,0004.35,0003.98
2024-01-05 21:37:00,SystemResetWarning,0821.3,5.01,000.00,021.6,020.8,000.0,029.9,022.7,12.2,0000.0,0009.13,0004.36,0003.98
2024-01-05 21:38:00,SystemResetWarning,0821.4,5.00,000.00,021.6,020.8,000.0,029.9,022.7,12.1,0000.0,0009.27,0004.35,0003.97
2024-01-05 21:39:00,SystemResetWarning,0821.4,5.00,000.00,021.6,020.8,000.0,029.9,022.8,12.1,0000.0,0009.21,0004.35,0003.97
2024-01-05 21:40:00,SystemResetWarning,0821.6,5.00,000.00,021.6,020.8,000.0,029.9,022.8,12.1,0000.0,0009.12,0004.35,0003.97
2024-01-05 21:41:00,SystemResetWarning,0821.5,5.00,000.00,021.6,020.9,000.0,029.9,022.8,12.1,0000.0,0009.74,0004.38,0003.99
2024-01-05 21:42:00,SystemResetWarning,0821.6,4.99,000.00,021.6,020.9,000.0,029.9,022.8,12.2,0000.0,0009.96,0004.41,0003.99
2024-01-05 21:43:00,SystemResetWarning,0821.7,4.99,000.00,021.6,020.9,000.0,029.9,022.8,12.3,0000.0,0010.03,0004.43,0004.00
2024-01-05 21:44:00,SystemResetWarning,0821.8,5.00,000.00,021.6,020.9,000.0,029.9,022.8,12.3,0000.0,0009.91,0004.43,0004.00
2024-01-05 21:45:00,SystemResetWarning,0822.0,4.99,000.00,021.6,020.9,000.0,029.9,022.8,12.4,0000.0,0009.55,0004.41,0004.01
2024-01-05 21:46:00,SystemResetWarning,0821.8,5.00,000.00,021.6,020.9,000.0,029.9,022.8,12.4,0000.0,0009.49,0004.43,0004.03
2024-01-05 21:47:00,SystemResetWarning,0821.9,5.01,000.00,021.6,020.9,000.0,029.9,022.8,12.6,0000.0,0009.34,0004.42,0004.04
2024-01-05 21:48:00,SystemResetWarning,0822.0,5.01,000.00,021.6,020.8,000.0,029.9,022.8,12.6,0000.0,0009.27,0004.44,0004.05
2024-01-05 21:49:00,SystemResetWarning,0821.9,5.01,000.00,021.6,020.8,000.0,029.9,022.7,12.6,0000.0,0008.42,0004.50,0004.08
2024-01-05 21:50:00,SystemResetWarning,0821.8,5.00,000.00,021.6,020.8,000.0,029.9,022.7,12.7,0000.0,0008.42,0004.54,0004.09
2024-01-05 21:51:00,SystemResetWarning,0822.0,4.99,000.00,021.6,020.8,000.0,029.9,022.7,12.7,0000.0,0008.83,0004.58,0004.12
2024-01-05 21:52:00,SystemResetWarning,0822.0,4.99,000.00,021.6,020.8,000.0,029.9,022.8,12.7,0000.0,0009.45,0004.61,0004.14
2024-01-05 21:53:00,SystemResetWarning,0822.0,5.00,000.00,021.6,020.8,000.0,029.9,022.8,12.7,0000.0,0008.74,0004.61,0004.15
2024-01-05 21:54:00,SystemResetWarning,0822.0,5.00,000.00,021.6,020.8,000.0,029.9,022.8,12.6,0000.0,0008.73,0004.62,0004.17
2024-01-05 21:55:00,SystemResetWarning,0821.9,5.01,000.00,021.6,020.8,000.0,029.9,022.8,12.6,0000.0,0008.73,0004.64,0004.19
2024-01-05 21:56:00,SystemResetWarning,0821.9,5.00,000.00,021.7,020.8,000.0,029.9,022.8,12.6,0000.0,0008.85,0004.68,0004.20
2024-01-05 21:57:00,SystemResetWarning,0822.0,4.99,000.00,021.6,020.8,000.0,029.9,022.7,12.5,0000.0,0008.81,0004.67,0004.20
2024-01-05 21:58:00,SystemResetWarning,0822.0,4.99,000.00,021.6,020.8,000.0,029.9,022.7,12.5,0000.0,0008.81,0004.64,0004.21
2024-01-05 21:59:00,SystemResetWarning,0821.9,5.00,000.00,021.6,020.8,000.0,029.9,022.7,12.4,0000.0,0008.95,0004.60,0004.20
